Flight Briefing for CPX794

Departure Arrival
Aeropuerto Internacional Ezeiza/Ministro Pistarini (SAEZ)
Click to view FAA NOTAMS
Miami International Airport (KMIA)
Click to view FAA NOTAMS
Departure Time Arrival Time
N/A N/A
Aircraft Distance
B747-400BCF 3849nm
Departure METAR Arrival METAR
SAEZ 250200Z 34006KT CAVOK 12/08 Q1014 NOSIG KMIA 250153Z 05009KT 10SM FEW040 26/18 A3008 RMK AO2 SLP186 T02610183
Suggested Route
UCA UA301 URSUS FLIPR6


View recent IFR Routes data
Notes



Charts and Procedures

Charts for SAEZ
No chart available
Charts for KMIA
No chart available

Windy.com Weather Map